Regional Weather Roundup
Issued by NWS Grand Forks, ND

Home | Current Version | Previous Version | Graphics & Text | Print | Product List | Glossary On
Versions: 1 2 3 4 5 6 7 8 9 10 11 12 13 14 15 16 17 18 19 20 21 22 23 24 25 26 27 28 29 30 31 32 33 34 35 36 37 38 39 40 41 42 43 44 45 46 47 48 49 50
000
ASUS43 KFGF 221310
RWRFGF
PRAIRIE TO PINES  WEATHER ROUNDUP
NATIONAL WEATHER SERVICE EASTERN NORTH DAKOTA/GRAND FORKS ND
800 AM CDT FRI JUL 22 2016

 **SATELLITE DATA USED TO AUGMENT SKY COVER AT AUTOMATED STATIONS**
 *****  WEATHER ACROSS EASTERN NORTH DAKOTA  *****

CITY           SKY/WX    TMP DP  RH WIND       PRES   REMARKS
GRAND FORKS    MOSUNNY   74  66  76 NW3       30.00R
GRAND FRKS AFB SUNNY     75  64  68 W5        30.01R
GRAND FRKS NWS   N/A     72 N/A N/A NW2         N/A
DEVILS LAKE    SUNNY     71  64  78 CALM      30.05R
FARGO          SUNNY     74  68  81 CALM      30.01F
WAHPETON ARPT  MOSUNNY   73  64  73 NE3       30.02R
$$

 ***** WEATHER ACROSS CENTRAL AND WESTERN NORTH DAKOTA  *****

CITY           SKY/WX    TMP DP  RH WIND       PRES   REMARKS
BISMARCK       CLOUDY    71  66  84 E7        30.04S
MINOT          SUNNY     71  62  73 NW5       30.07R
JAMESTOWN      SUNNY     74  69  85 CALM      30.03S
MINOT AFB      SUNNY     64  60  86 NW2       30.06R
GARRISON         N/A     72  59  63 CALM      30.03F
WILLISTON      SUNNY     70  52  52 NE7       30.05F
DICKINSON      SUNNY     68  63  84 SE6       30.04S
HETTINGER      PTSUNNY   70  67  90 NE6       30.05F
$$

 *****  OTHER AIRPORT OBSERVATIONS IN OUR AREA  *****

CITY           SKY/WX    TMP DP  RH WIND       PRES   REMARKS
WALHALLA       NOT AVBL
GRAFTON AIRPOR FAIR      73  61  64 W6        30.02R
VALLEY CITY AR FAIR      73  73 100 CALM      30.05S
CANDO          NOT AVBL
CAVALIER APRT  FAIR      68  61  77 W3        30.00R
GWINNER        FAIR      73  70  88 SE3       30.03R
SHEYENNE NWR     N/A     74  69  83 NE3       29.95S
ROLLA          FAIR      68  63  83 NW5       30.07R
 ***** THE ABOVE OBSERVATIONS ARE NON NWS ARE NOT QUALITY
       CONTROLLED AND MAY MIS-REPORT RAIN FOR SNOW...
$$

  *****  WEATHER ACROSS NORTHERN MINNESOTA  *****

CITY           SKY/WX    TMP DP  RH WIND       PRES   REMARKS
FLAG ISLAND    SUNNY     70  61  73 W7        29.95S
WARROAD        SUNNY     70  64  83 SW5       29.98S
ROSEAU         SUNNY     70  64  83 W5        29.98S
HALLOCK        SUNNY     68  64  88 W3        29.99R
THF RVR FALLS  SUNNY     72  66  81 W5        30.02R
BAUDETTE       SUNNY     71  63  75 W7        29.97S
WASKISH        SUNNY     73  68  83 W7        30.00R
CROOKSTON      SUNNY     72  70  94 SW5       30.01S
STEPHEN NDAWN    N/A     72  63  73 W3          N/A
GREENBUSH NDAW   N/A     70  64  83 W5          N/A
$$
  *****  WEATHER ACROSS CENTRAL AND WEST MINNESOTA  *****

CITY           SKY/WX    TMP DP  RH WIND       PRES   REMARKS
FOSSTON        MOSUNNY   72  66  83 S6        30.03S
BEMIDJI        SUNNY     72  66  83 SW5       30.02S
PARK RAPIDS    MOSUNNY   71  65  81 CALM      30.04S
ELBOW LAKE     FAIR      74  66  77 SE7       30.03R
WADENA         NOT AVBL
DETROIT LAKES  SUNNY     72  68  88 CALM      30.05S
MOORHEAD       SUNNY     72  68  88 CALM      30.03S
FERGUS FALLS   SUNNY     75  66  73 CALM      30.03S
MORRIS MN      SUNNY     75  70  83 CALM      30.01S
STAPLES        SUNNY     66  66 100 CALM      30.04S
$$
  *****  WEATHER ELSEWHERE ACROSS MINNESOTA  *****

CITY           SKY/WX    TMP DP  RH WIND       PRES   REMARKS
DULUTH         MOSUNNY   75  63  66 W6        30.01S
INTRNTL FALLS  SUNNY     70  63  78 W6        29.96S
ELY            SUNNY     70  61  73 W6        29.99S
CLOQUET        SUNNY     73  63  68 W3        30.01S
WHEATON        CLOUDY    72  70  94 E3        30.03S
BRAINERD       SUNNY     70  67  90 CALM      30.04R
HIBBING        SUNNY     69  64  84 CALM      30.01R
ALEXANDRIA     SUNNY     76  67  73 E3        30.05S
SAINT CLOUD    SUNNY     73  69  87 CALM      30.02R
MINNEAPOLIS    MOSUNNY   80  65  59 N6        30.02R
$$

  *****  WEATHER ACROSS SOUTH DAKOTA  *****

CITY           SKY/WX    TMP DP  RH WIND       PRES   REMARKS
SIOUX FALLS    MOSUNNY   80  75  84 E9        29.96F
BROOKINGS      NOT AVBL
WATERTOWN      SUNNY     79  68  69 NE3       30.03R
HURON          MOSUNNY   78  74  87 NE6       29.99R
SISSETON         N/A     70  70 100 CALM      30.02R
ABERDEEN       SUNNY     74  70  87 NE7       30.01R
MITCHELL       SUNNY     81  77  88 E6        29.96R
PIERRE         CLOUDY    78  77  96 SE7       29.99R FOG
MOBRIDGE       CLOUDY    77  73  87 E9        29.99F FOG
RAPID CITY     CLOUDY    73  64  73 NW3       30.05F
$$

  *****  SOME WEATHER IN NEARBY STATES *****

CITY           SKY/WX    TMP DP  RH WIND       PRES   REMARKS
GLASGOW MT     CLOUDY    64  57  78 MISG      30.07R
GREAT FALLS MT CLEAR     57  42  57 SW6       30.03R
CHEYENNE WY    CLOUDY    67  47  48 W10       30.29R
SCOTTSBLUFF NE CLOUDY    72  65  78 CALM      30.13R
OMAHA NE       CLOUDY    81  73  76 S8        29.93R
DES MOINES IA  PTSUNNY   76  70  82 S18G26    30.00R
DAVENPORT IA   CLOUDY    72  68  87 SW7       30.03R
CHICAGO IL     CLOUDY    74  67  78 W6        30.02F
EAU CLAIRE WI  FOG       72  72 100 CALM      30.01S VSB 1/4
LA CROSSE WI   CLOUDY    76  73  91 S6        30.00S
$$

  *****  SOME NATIONAL WEATHER *****

CITY           SKY/WX    TMP DP  RH WIND       PRES   REMARKS
LA GUARDIA NY  PTSUNNY   82  68  62 SW14      29.96S
RALEIGH NC     PTSUNNY   80  72  76 SW6       30.10F
ATLANTA GA     CLOUDY    74  71  91 SW6       30.14S
NEW ORLEANS LA PTSUNNY   86  78  77 W5        30.07S HX  98
OKLAHOMA CITY  SUNNY     77  69  76 S6        30.07R
ALBUQUERQUE NM PTCLDY    70  47  43 S3        30.31R
SALT LAKE CITY MOCLDY    82  52  35 SE18      30.10S
LOS ANGELES CA PTCLDY    70  59  68 CALM      29.91S
BOISE ID       MOCLDY    74  38  27 NW5       30.06R
SEATTLE WA     LGT RAIN  60  59  96 S9        30.19R
$$

*** WEATHER ACROSS MANITOBA...SASKATCHEWAN AND ONTARIO ***
                ***ONTARIO***

CITY           SKY/WX    TMP DP  RH WIND       PRES   REMARKS
GERALDTON      PTSUNNY   70  61  73 W10G17    29.81R
THUNDER BAY    MOSUNNY   73  63  68 W8        29.86S
SIOUX LOOKOUT  SUNNY     70  59  68 W8        29.89R
TORONTO        MOSUNNY   81  70  69 W17G23    29.88S
BIG TROUT LK   CLOUDY    57  55  94 VRB2      29.74R
PICKLE LAKE    MOSUNNY   66  59  77 W14G22    29.80R
DRYDEN         SUNNY     70  59  68 W12       29.92R
KENORA         SUNNY     68  63  83 W8        29.95R
$$
                *** MANITOBA***

CITY           SKY/WX    TMP DP  RH WIND       PRES   REMARKS
BRANDON        SUNNY     64  61  88 W6        30.04R
DAUPHIN        SUNNY     68  59  73 W14G20    29.97R
ISLAND LAKE    NOT AVBL
PILOT MOUND      N/A     63  59  88 SW5         N/A
THE PAS        MOSUNNY   64  57  77 NW10      29.93R
THOMPSON       PTSUNNY   61  54  77 NE9       29.80R
WINNIPEG       SUNNY     68  59  73 W10       29.97R
LYNN LAKE      PTSUNNY   52  45  76 MISG      29.92R
CHURCHILL      PTSUNNY   50  46  87 NW22G37   29.66R
GILLAM         PTSUNNY   63  59  88 NW15G22   29.68R
$$
                ***SASKATCHEWAN***

CITY           SKY/WX    TMP DP  RH WIND       PRES   REMARKS
ESTEVAN        PTSUNNY   63  61  94 CALM      30.07S
KINDERSLEY     MOSUNNY   59  54  82 NE8       30.07F
LLOYDMINSTER   PTSUNNY   55  54  94 CALM      30.06R
PRINCE ALBERT  PTSUNNY   59  55  88 W3        30.03R
REGINA         SUNNY     61  57  88 CALM      30.07S
YORKTON        SUNNY     64  59  82 W8        30.03R
N. BATTLEFORD  CLOUDY    55  55 100 CALM      30.07S
LA RONGE       MOSUNNY   55  48  76 NW5       30.01R
SASKATOON      NOT AVBL
SWIFT CURRENT  SUNNY     59  52  77 E6        30.06R
$$
NOTE: THESE ARE AUTOMATED STATIONS WITH LIMITED QUALITY CONTROL
      "FAIR" INDICATES FEW OR NO CLOUDS BELOW 12,000 FEET WITH NO
      SIGNIFICANT WEATHER AND/OR OBSTRUCTIONS TO VISIBILITY.
      SKY/WX - SKY CONDITION AND SIGNIFICANT WEATHER.
      TMP - AIR TEMPERATURE.    DP   - DEWPOINT TEMPERATURE.
      RH  - RELATIVE HUMIDITY.  PRES - PRESSURE.
      HX  - HEAT INDEX.         WCI  - WIND CHILL INDEX.
$




USA.gov is the U.S. government's official web portal to all federal, state and local government web resources and services.